Location: Bühlhof
(48.7849°N, 8.6361°E)
Time: 02:23:44
(UTC+00:00)

ISS - Visible Passes

Search period start: 13 March 2026 00:00
Search period end: 23 March 2026 00:00
Orbit: 415 x 426 km, 51.6° (Epoch: 12 March)

Date Brightness Start Highest point End Pass type
(mag) Time Alt. Az. Time Alt. Az. Time Alt. Az.
13 Mar -3.3 18:45:52 10° SW 18:49:07 42° SSE 18:50:16 30° E visible
13 Mar -0.8 20:22:32 10° W 20:23:16 15° W 20:23:16 15° W visible
14 Mar -2.6 17:59:07 10° SSW 18:02:06 29° SE 18:05:06 10° E visible
14 Mar -3.5 19:35:21 10° WSW 19:38:26 67° WNW 19:38:26 67° WNW visible
15 Mar -3.8 18:48:12 10° WSW 18:51:37 85° SSE 18:53:28 25° ENE visible
15 Mar -1.0 20:25:18 10° W 20:26:28 19° WNW 20:26:28 19° WNW visible
16 Mar -3.6 18:01:08 10° SW 18:04:29 62° SSE 18:07:52 10° ENE visible
16 Mar -3.2 19:38:04 10° W 19:41:23 53° N 19:41:23 53° N visible
17 Mar -3.4 18:50:48 10° W 18:54:11 61° NNW 18:56:14 21° ENE visible
17 Mar -1.1 20:27:57 10° WNW 20:29:13 21° WNW 20:29:13 21° WNW visible
18 Mar -3.5 18:03:33 10° WSW 18:06:57 74° NNW 18:10:21 10° ENE visible
18 Mar -3.1 19:40:42 10° WNW 19:43:59 50° N 19:43:59 50° N visible
19 Mar -3.1 18:53:26 10° W 18:56:46 50° N 18:58:43 22° ENE visible
19 Mar -1.2 20:30:25 10° WNW 20:31:42 21° WNW 20:31:42 21° WNW visible
20 Mar -3.1 18:06:07 10° W 18:09:28 53° N 18:12:48 10° ENE visible
20 Mar -3.4 19:43:11 10° WNW 19:46:23 61° N 19:46:23 61° N visible
21 Mar -3.3 18:55:55 10° WNW 18:59:16 55° N 19:01:03 24° ENE visible
21 Mar -1.1 20:32:49 10° WNW 20:34:01 20° W 20:34:01 20° W visible
22 Mar -3.1 18:08:36 10° WNW 18:11:56 50° N 18:15:16 10° E visible
22 Mar -3.6 19:45:31 10° WNW 19:48:40 72° WSW 19:48:40 72° WSW visible
